Regional Weather Roundup
Issued by NWS Northern Indiana

Home | Current Version | Previous Version | Text Only | Print | Product List | Glossary Off
Versions: 1 2 3 4 5 6 7 8 9 10 11 12 13 14 15 16 17 18 19 20 21 22 23 24 25 26 27 28 29 30 31 32 33 34 35 36 37 38 39 40 41 42 43 44 45 46 47 48 49 50

000
ASUS43 KIWX 200401
RWRIWX

KIWX WEATHER ROUNDUP
NATIONAL WEATHER SERVICE NORTHERN INDIANA
1200 AM EDT THU JUL 20 2017

NOTE: "FAIR" INDICATES FEW OR NO CLOUDS BELOW 12,000 FEET WITH NO
SIGNIFICANT WEATHER AND/OR OBSTRUCTIONS TO VISIBILITY.

* THESE STATIONS ARE NOT UNDER NWS QUALITY CONTROL. THEY ALSO MAY NOT
  REPORT WEATHER SUCH AS PRECIPITATION OR FOG.

INZ001>027-200500-
NORTHERN INDIANA

CITY           SKY/WX    TMP DP  RH WIND       PRES   REMARKS
GARY*          RAIN      73  67  80 NW6       30.12R
MICHIGAN CITY* CLOUDY    72  70  94 CALM      30.09S
KNOX*          CLOUDY    73  68  83 CALM      30.07F
SOUTH BEND     MOCLDY    75  72  90 CALM      30.08S
GOSHEN         PTCLDY    75  70  84 S3        30.08
MONTICELLO*    CLEAR     78  75  89 SW3       30.08S
WARSAW*        PTCLDY    77  73  88 CALM      30.09S
FORT WAYNE     CLOUDY    75  71  87 W6        30.10R
PERU/GRISSOM   CLOUDY    76  75  98 W6        30.08S

$$
INZ028>050-200500-
CENTRAL INDIANA

CITY           SKY/WX    TMP DP  RH WIND       PRES   REMARKS
LAFAYETTE      CLEAR     76  74  93 CALM      30.09R
KOKOMO*        PTCLDY    77  73  87 S3        30.11R
MUNCIE*        CLEAR     79  71  76 SW6       30.10R
INDIANAPOLIS   CLEAR     78  72  81 W3        30.10R

$$
MIZ043>046-050>051-056>058-064>065-071>073-077>080-200500-
SOUTHWEST LOWER MICHIGAN

CITY           SKY/WX    TMP DP  RH WIND       PRES   REMARKS
BATTLE CREEK   CLOUDY    74  72  93 SW6       30.07S
BENTON HARBOR  CLOUDY    72  67  84 CALM      30.06F
COLDWATER*     CLOUDY    73  73 100 CALM      30.08S
HILLSDALE*     CLOUDY    70  68  94 CALM      30.09R FOG
HOLLAND        CLOUDY    71  62  73 SW3       30.03F
GRAND RAPIDS   CLOUDY    75  68  78 SW8       30.03F
KALAMAZOO      PTCLDY    75  68  78 CALM      30.06F
STURGIS*       CLOUDY    73  72  98 MISG      30.07F
THREE RIVERS*  FAIR      74  71  91 CALM      30.07F

$$
OHZ001>008-015>018-024>025-200500-
NORTHWEST OHIO

CITY           SKY/WX    TMP DP  RH WIND       PRES   REMARKS
DEFIANCE       CLEAR     74  70  87 CALM      30.07R
FINDLAY        CLEAR     77  70  79 CALM      30.07R
TOLEDO EXPRESS CLEAR     73  72  96 CALM      30.06R
TOLEDO METCALF CLEAR     75  73  93 SW3       30.06S
LIMA           CLEAR     74  71  91 CALM      30.09R

$$
AND FOR LAKE MICHIGAN COASTAL AND OPEN LAKE BUOY OBSERVATIONS

STATION/POSITION TEMP    WIND        PRES    VSBY  WAVE
                 AIR SEA DIR/SP/G                  HT/PER
                 (F)     (DEG/KT/KT) (MB)    (MI)  (FT/S)
CALUMET HARBOR    70     300/  4/ 21 1019.5R
MICHIGAN CITY     74      10/  1/  1   N/A
BURNS HARBOR      74     330/  4/  5 1019.6R
SAINT JOSEPH      73      CALM  /  1 1019.3
SOUTH LAKE BUOY   70 71  130/  2/  2 1018.0          1
4 MI NW BRIDGMAN  74 76   50/  2/  4 1017.9F         1/ 2
MICHIGAN CITY     74 75  330/  4/ 12   N/A           1

$$
&&




USA.gov is the U.S. government's official web portal to all federal, state and local government web resources and services.